Caputa, SD (57725)

11:54 AM MDT on August 22, 2014 (GMT -0600)
Rapid City | Change Station
CLOSE
Current Station
Airport
Location: Rapid City,
Elevation: 3166 ft
Nearby Weather Stations

Elev 3166 ft 44.05 °N, 103.06 °W | Updated 27 minutes ago

Overcast
Overcast
70 °F
Feels Like 70 °F
N
5
Wind Variable Wind from NE

Today
High -- | Low -- °F
--% Chance of Precip.
Yesterday
High -- | Low -- °F
Precip. -- in
6:03 AM 7:44 PM
Waning Crescent, 7% visible
Pressure 30.07 in
Visibility 10.0 miles
Clouds Overcast 1500 ft
Dew Point 61 °F
Humidity 73%
Rainfall 0.00 in
Snow Depth Not available.
UV 3 out of 12
Pollen 9.60 out of 12
Air Quality Not available.
Flu Activity Not available.
SPECI KRAP 221727Z 05004KT 10SM OVC015 21/16 A3007 RMK AO2 T02110161

More Conditions Fewer Conditions

Pressure 30.07 in
Visibility 10.0 miles
Clouds Overcast 1500 ft
Dew Point 61 °F
Humidity 73%
Rainfall 0.00 in
Snow Depth Not available.
UV 3 out of 12
Pollen 9.60 out of 12
Air Quality Not available.
Flu Activity Not available.
SPECI KRAP 221727Z 05004KT 10SM OVC015 21/16 A3007 RMK AO2 T02110161

More Conditions Fewer Conditions

10-Day Weather Forecast

Almanac

Astronomy

Aug. 22, 2014 Rise Set
Actual Time 6:03 AM MDT 7:44 PM MDT
Civil Twilight 5:33 AM MDT 8:15 PM MDT
Nautical Twilight 4:56 AM MDT 8:52 PM MDT
Astronomical Twilight 4:15 AM MDT 9:32 PM MDT
Moon 3:25 AM MDT 5:56 PM MDT
Length of Visible Light 14h 42m
Length of Day
13h 40m
Tomorrow will be 2m 48s shorter.
Waning Crescent, 7% of the Moon is Illuminated
Today
Waning Crescent
Aug 25
New
Sep 2
First Quarter
Sep 8
Full
Sep 15
Last Quarter

Today's Extremes

State Highs State Lows

Community

WunderPhotos

Upload Photos

1,746,206 photos uploaded!

WunderBlogs® & News

Nearby

Snow Depth

Station Depth Elevation
North Rapid Creek 0 in 6130 ft

Earthquake Activity

City Distance Mag. Time & Date
No recent earthquake activity has been reported nearby.
Minimum magnitude displayed is 2.5.

Coastal Water Temperatures

Place Temperature
No Stations Reporting

Nearby Weather Stations